Wind_Speed
19 19 17 18 20 19 20 16 14 13 16 15 12 1 4 5 3 10 16 10 9 9 18 16 15 20 25 27 28 29 26 26 25 25 22 20 19 17 16 15 15 15 15 13
20 20 22 16 20 21 21 20 19 14 17 14 16 17 13 10 5 6 5 4 1 7 17 20 20 22 22 23 24 22 20 18 16 17 16 16 14 13 15 17 16 13 10 9
16 19 17 18 16 13 13 14 13 13 10 11 9 10 9 4 5 7 7 6 3 5 17 20 19 21 19 19 19 19 18 16 14 13 11 13 14 16 15 13 12 10 9 8
9 3 23 10 12 14 13 12 13 14 11 10 12 16 3 3 3 7 10 9 10 13 14 17 18 16 15 12 16 16 15 15 15 15 17 17 17 15 12 12 11 8 5 3
7 14 12 19 10 9 9 14 12 14 13 14 18 4 3 7 5 7 14 13 14 14 17 15 16 15 14 16 17 18 18 18 18 18 19 18 15 15 14 10 7 7 7 9
6 11 16 9 12 6 7 12 13 12 9 11 7 4 1 11 10 13 14 14 16 17 19 20 17 17 19 20 19 18 18 17 19 18 18 17 15 11 10 9 9 12 10 10
7 5 5 8 11 13 14 5 17 18 16 11 5 4 15 15 16 17 18 18 19 20 22 22 23 24 24 24 22 21 20 19 20 18 13 11 13 13 13 13 13 14 13 13
6 6 15 5 4 19 9 6 14 11 9 5 9 11 14 17 19 21 22 23 23 23 22 22 22 24 23 21 20 21 19 20 17 17 18 18 16 15 12 10 11 10 10 10
5 3 2 11 10 14 7 4 7 9 7 7 13 15 16 20 20 22 22 23 22 23 23 22 22 21 23 22 21 22 20 20 20 17 15 14 12 11 8 7 8 10 11 9
6 7 11 9 5 8 10 6 4 6 7 5 16 18 19 21 22 23 23 23 22 23 23 22 20 20 22 23 21 20 20 18 17 15 14 12 9 9 10 12 11 11 9 11
13 15 10 22 22 18 13 11 14 9 9 9 13 21 23 24 25 25 24 23 22 22 22 20 20 21 20 19 18 18 17 15 15 14 9 12 13 10 10 10 10 11 14 15
2 6 5 4 8 8 8 15 12 8 8 8 11 15 18 19 21 23 23 22 21 21 22 20 19 18 16 16 17 17 16 14 13 12 11 8 4 7 7 9 11 12 13 15
5 8 3 2 4 4 5 6 5 6 8 8 9 12 16 17 19 20 20 21 21 20 20 20 19 17 16 16 16 16 15 11 10 7 7 8 7 8 8 11 13 14 13 14
19 9 4 7 1 4 3 5 5 3 3 4 7 12 16 17 19 20 20 19 20 20 18 18 17 14 14 16 14 10 7 8 6 4 7 7 9 9 10 11 12 13 14 16
7 4 3 2 1 1 1 3 5 7 8 10 12 18 21 23 23 20 20 21 22 22 19 18 16 15 13 9 7 7 4 3 7 6 7 9 10 11 10 11 11 12 10 11
11 7 5 4 5 4 5 7 10 10 12 15 18 20 23 27 31 31 29 27 29 24 17 13 14 14 13 9 5 4 3 7 9 10 10 10 10 10 10 11 13 13 12 13
13 7 9 9 8 9 10 10 12 14 17 21 25 27 29 32 31 29 25 21 15 14 16 14 12 9 7 5 3 5 7 8 8 9 10 11 12 12 12 13 13 14 14 15
12 12 9 15 17 18 18 19 19 20 21 22 24 25 28 25 25 21 16 15 18 17 13 10 8 5 2 2 5 7 7 9 10 10 11 11 13 14 13 14 14 14 15 16
14 18 19 21 18 18 19 20 20 23 24 23 23 22 19 18 20 22 21 17 14 11 9 6 2 2 3 5 7 8 9 10 11 11 13 14 14 12 13 16 15 17 19 18
16 19 20 22 22 22 25 23 24 24 21 19 21 23 26 25 22 20 16 13 9 7 4 3 2 3 4 6 8 11 11 12 12 13 13 15 16 12 17 17 14 16 18 19
26 27 30 30 31 28 26 25 26 27 26 26 29 29 26 21 16 12 9 8 6 5 3 1 3 5 7 9 10 13 14 14 13 13 14 15 16 17 16 17 18 19 20 19
34 37 38 38 37 34 30 29 30 30 28 26 24 23 20 17 13 10 7 6 5 5 4 5 7 9 12 13 12 12 13 14 14 15 15 15 16 18 19 18 19 19 19 21
35 36 36 37 37 37 33 30 28 27 27 24 22 19 17 14 10 6 8 7 4 4 5 9 12 13 13 14 12 12 14 15 15 15 16 17 17 18 20 19 18 20 20 20
36 35 35 34 32 31 31 27 25 23 22 20 19 16 12 8 8 7 5 1 2 5 8 11 14 16 15 14 14 15 15 16 16 16 17 20 20 16 17 19 19 19 20 21
33 32 31 30 31 29 26 23 23 19 17 15 13 10 9 9 5 5 6 6 5 4 10 16 19 21 17 12 12 14 17 17 17 20 17 16 18 19 18 17 18 20 22 24
32 32 30 28 26 23 21 19 20 16 13 14 13 12 10 10 8 9 10 9 10 11 11 11 15 15 16 17 19 18 16 16 17 18 18 19 21 18 17 18 19 20 21 23
27 26 25 24 22 20 17 15 16 18 14 10 11 9 8 7 7 7 6 8 10 9 11 12 13 15 16 18 17 17 18 18 17 18 19 19 19 19 19 20 20 21 22 21
Wind_Direction
236 240 227 214 222 236 249 249 233 230 249 259 265 286 331 283 181 162 237 219 232 218 175 169 167 182 190 195 201 208 209 203 208 209 217 221 221 224 224 217 206 190 198 199
247 228 248 251 223 215 219 242 258 255 258 265 277 274 214 239 247 227 254 13 31 220 170 158 172 192 199 195 198 205 203 206 207 219 220 200 198 203 192 179 182 187 178 180
239 246 244 249 243 249 227 231 244 251 259 269 277 273 274 255 258 213 159 172 230 213 155 168 188 203 208 215 212 210 214 211 201 196 195 186 178 169 172 171 168 166 181 215
225 218 240 264 248 250 262 270 277 271 264 263 275 277 301 123 205 169 175 179 172 178 155 172 188 198 215 200 184 185 186 187 187 189 174 159 158 160 164 167 173 195 203 162
196 236 258 234 223 239 230 249 258 251 262 259 267 80 147 174 197 193 181 176 176 173 164 176 190 200 185 165 166 170 172 174 171 161 155 158 164 166 169 185 168 151 170 192
249 220 233 237 229 192 237 252 245 253 267 273 220 177 24 156 153 161 161 167 168 166 164 163 157 151 146 148 155 159 160 164 158 159 161 163 167 176 158 136 159 179 187 203
244 243 247 220 230 214 223 212 253 259 263 262 261 89 141 151 158 164 164 165 166 164 162 162 162 160 155 159 160 160 163 156 154 157 159 150 141 161 165 177 193 212 219 233
226 227 238 358 348 218 218 203 257 280 277 340 126 138 162 174 174 170 170 169 168 165 166 166 163 162 161 159 162 159 159 157 145 150 165 175 180 175 174 197 213 232 251 262
194 195 269 224 230 350 339 275 296 320 297 300 172 172 177 169 173 175 174 171 171 169 166 164 165 162 158 159 158 157 155 156 169 171 161 161 170 187 173 208 227 231 244 253
293 276 280 271 248 286 284 307 308 304 278 267 183 186 180 177 178 179 178 174 172 169 163 161 162 165 163 162 161 159 161 165 164 169 170 165 179 177 195 219 231 243 250 247
220 236 236 288 288 255 289 283 280 262 259 269 207 195 190 183 182 180 179 174 173 168 163 158 163 163 157 157 159 161 161 163 169 166 172 168 184 206 228 246 252 253 257 261
180 220 207 258 205 238 256 285 294 253 252 252 235 199 192 189 183 178 173 170 165 163 159 157 149 143 148 156 166 163 155 164 173 172 165 154 236 251 264 273 280 279 273 271
224 235 199 240 324 302 309 309 293 261 258 256 223 208 193 183 176 173 167 162 161 154 149 144 139 142 150 157 158 162 175 172 171 170 192 215 222 237 272 285 291 297 303 301
250 206 256 275 214 283 308 270 286 243 240 231 202 172 167 161 161 155 151 150 144 141 137 141 143 135 160 164 171 163 152 156 171 215 243 241 251 258 258 252 266 290 302 306
149 185 158 178 229 54 344 71 95 97 112 114 134 142 153 138 130 136 142 144 137 134 133 127 129 131 127 124 144 159 177 259 263 265 269 270 267 270 271 272 276 276 270 293
177 149 144 145 129 99 92 100 109 100 107 114 120 121 128 142 147 145 140 144 140 131 134 150 147 143 155 168 190 195 238 271 278 278 282 282 283 283 281 275 274 278 274 269
124 137 151 141 128 116 103 100 106 110 119 133 142 149 148 142 138 137 138 147 162 157 147 145 145 157 160 160 220 266 289 277 273 278 282 285 290 286 279 280 283 282 280 283
93 101 118 138 129 121 126 129 134 138 137 138 143 146 142 144 138 141 148 147 147 148 150 157 157 146 149 304 297 278 275 285 292 293 292 289 285 292 292 289 290 287 280 272
111 121 127 133 138 130 126 128 130 133 135 140 142 135 135 135 137 137 138 137 136 141 137 144 140 28 328 280 287 300 305 302 298 297 295 299 299 298 289 281 285 281 290 293
112 119 122 118 117 118 118 121 125 126 130 136 133 129 127 127 129 130 134 131 129 128 106 59 1 319 325 330 329 320 317 315 312 309 310 303 312 305 287 299 294 293 293 292
112 114 114 112 108 108 112 119 120 119 123 125 125 123 121 119 115 112 115 107 92 74 77 5 318 331 330 335 334 313 317 316 313 303 302 299 298 298 295 290 291 292 294 294
107 105 107 109 110 112 115 117 116 118 118 118 117 117 116 107 103 105 87 66 88 76 27 313 339 330 326 329 325 318 315 312 306 308 308 301 296 296 296 295 294 294 292 290
109 111 113 112 111 110 112 111 111 112 109 106 101 100 103 107 101 87 74 57 48 119 275 311 319 323 330 334 326 325 320 316 316 308 304 302 297 298 300 303 298 298 299 298
103 103 102 107 110 108 101 99 101 100 102 102 101 101 90 71 85 92 106 132 332 339 333 330 331 332 335 343 331 324 318 315 315 308 296 295 304 297 293 296 298 298 296 293
99 98 97 96 93 92 92 92 91 91 95 93 91 95 101 118 104 77 32 19 29 43 352 338 339 340 346 341 314 309 316 320 313 312 316 302 296 299 297 297 298 297 295 299
105 100 100 101 100 103 105 107 99 90 86 83 74 67 65 65 57 41 23 23 6 0 349 339 334 338 333 332 329 335 327 316 313 309 304 305 308 311 306 300 297 296 293 292
98 104 107 106 106 109 110 107 111 106 92 78 81 69 69 53 41 32 13 354 354 344 341 342 336 332 332 329 333 323 320 319 313 311 313 307 306 307 304 301 297 298 302 307
Height
1405 1404 1405 1410 1414 1416 1417 1416 1426 1425 1422 1417 1413 1413 1416 1419 1424 1424 1432 1430 1430 1432 1434 1438 1444 1446 1447 1449 1451 1453 1453 1455 1459 1462 1464 1470 1473 1476 1479 1481 1483 1486 1489 1491
1409 1403 1402 1405 1401 1404 1408 1411 1410 1412 1414 1409 1410 1410 1411 1414 1417 1421 1425 1429 1429 1431 1432 1436 1438 1443 1446 1447 1449 1451 1453 1455 1458 1461 1464 1467 1470 1474 1476 1479 1482 1485 1487 1490
1417 1405 1405 1414 1403 1398 1399 1401 1404 1413 1406 1405 1406 1407 1408 1410 1414 1417 1422 1428 1431 1432 1432 1432 1434 1438 1442 1445 1447 1450 1452 1454 1457 1460 1464 1466 1469 1472 1476 1479 1482 1484 1487 1489
1419 1422 1422 1402 1391 1393 1398 1399 1399 1400 1400 1401 1403 1404 1405 1409 1413 1416 1422 1425 1428 1431 1432 1430 1432 1436 1440 1443 1447 1450 1452 1454 1456 1459 1462 1465 1469 1473 1476 1479 1481 1484 1485 1487
1416 1415 1405 1396 1393 1396 1400 1404 1398 1398 1397 1397 1398 1401 1405 1408 1411 1414 1419 1423 1427 1430 1432 1430 1432 1435 1439 1442 1446 1448 1450 1452 1456 1459 1463 1467 1470 1472 1475 1478 1480 1483 1485 1487
1415 1414 1418 1399 1391 1391 1396 1408 1396 1395 1395 1395 1396 1405 1404 1406 1410 1414 1417 1422 1426 1429 1431 1432 1433 1435 1438 1441 1444 1447 1450 1453 1456 1459 1463 1466 1469 1472 1475 1477 1480 1481 1482 1483
1413 1416 1399 1387 1389 1392 1408 1408 1392 1393 1392 1391 1391 1394 1399 1405 1410 1413 1417 1420 1424 1428 1430 1432 1434 1437 1439 1441 1444 1446 1448 1451 1456 1460 1463 1465 1469 1472 1474 1475 1475 1476 1477 1478
1410 1412 1409 1384 1385 1393 1388 1387 1390 1389 1389 1390 1391 1395 1398 1402 1407 1411 1414 1418 1422 1426 1429 1431 1434 1436 1438 1440 1442 1445 1448 1451 1456 1460 1462 1465 1466 1469 1471 1472 1472 1473 1475 1475
1392 1392 1381 1382 1384 1384 1386 1389 1389 1389 1389 1388 1390 1395 1398 1402 1407 1411 1415 1418 1422 1425 1426 1430 1433 1436 1438 1439 1442 1446 1449 1452 1454 1457 1460 1463 1465 1466 1468 1469 1469 1469 1469 1470
1396 1386 1386 1383 1384 1385 1387 1387 1387 1388 1388 1389 1389 1393 1397 1401 1405 1410 1414 1417 1421 1424 1428 1430 1434 1436 1436 1438 1442 1446 1449 1450 1452 1454 1457 1460 1461 1463 1464 1464 1465 1466 1466 1465
1384 1381 1380 1384 1382 1384 1384 1386 1386 1387 1387 1389 1389 1390 1392 1396 1401 1406 1412 1416 1419 1424 1428 1431 1432 1434 1436 1440 1443 1445 1448 1449 1451 1453 1455 1457 1458 1458 1459 1461 1462 1462 1461 1461
1377 1374 1376 1379 1380 1380 1381 1381 1382 1384 1385 1386 1388 1390 1394 1399 1402 1407 1411 1416 1420 1424 1427 1429 1433 1436 1439 1441 1442 1443 1445 1448 1449 1451 1453 1456 1457 1457 1457 1458 1458 1457 1457 1457
1369 1371 1374 1376 1377 1378 1379 1381 1382 1384 1384 1385 1386 1389 1393 1398 1403 1409 1413 1417 1420 1424 1428 1430 1434 1437 1438 1439 1441 1442 1444 1446 1448 1450 1450 1452 1454 1454 1454 1453 1452 1452 1451 1451
1364 1366 1372 1374 1376 1377 1379 1379 1380 1380 1382 1383 1385 1387 1393 1398 1404 1410 1416 1419 1421 1426 1432 1433 1434 1436 1438 1440 1443 1444 1445 1447 1448 1449 1449 1449 1449 1449 1450 1451 1450 1448 1448 1447
1363 1365 1370 1373 1375 1376 1378 1379 1380 1381 1381 1383 1386 1389 1391 1397 1405 1413 1417 1420 1423 1427 1431 1434 1436 1439 1442 1443 1445 1446 1446 1447 1448 1447 1447 1447 1446 1446 1446 1446 1446 1446 1446 1445
1361 1364 1368 1372 1374 1376 1378 1381 1381 1383 1385 1387 1389 1393 1396 1397 1399 1405 1412 1417 1419 1425 1433 1437 1440 1441 1442 1443 1444 1444 1446 1448 1447 1447 1446 1444 1443 1443 1443 1442 1441 1441 1441 1440
1359 1365 1368 1371 1375 1378 1381 1382 1384 1386 1388 1388 1388 1389 1394 1398 1403 1410 1417 1423 1427 1430 1435 1438 1440 1442 1442 1443 1444 1444 1444 1446 1446 1445 1443 1441 1441 1440 1439 1438 1437 1436 1436 1434
1361 1364 1368 1372 1375 1377 1379 1381 1384 1387 1389 1393 1395 1398 1402 1407 1412 1418 1423 1427 1430 1433 1437 1439 1440 1441 1442 1443 1444 1444 1443 1444 1444 1443 1440 1438 1437 1436 1436 1434 1434 1432 1431 1429
1363 1364 1368 1372 1374 1376 1381 1385 1387 1389 1394 1398 1401 1405 1410 1415 1419 1423 1427 1431 1433 1435 1438 1439 1440 1440 1442 1444 1443 1442 1442 1442 1441 1439 1437 1436 1434 1433 1433 1431 1430 1427 1426 1424
1366 1367 1371 1374 1378 1380 1383 1389 1392 1396 1400 1403 1406 1410 1415 1421 1425 1429 1432 1434 1436 1438 1439 1440 1442 1443 1443 1442 1441 1439 1439 1438 1437 1436 1434 1433 1431 1430 1428 1427 1425 1423 1421 1419
1371 1374 1375 1378 1381 1386 1391 1396 1398 1402 1406 1410 1413 1417 1422 1427 1432 1434 1436 1437 1439 1440 1441 1442 1442 1441 1440 1440 1440 1438 1437 1436 1434 1433 1431 1430 1428 1426 1425 1423 1421 1418 1416 1414
1380 1381 1383 1384 1387 1393 1400 1403 1406 1410 1415 1419 1422 1425 1429 1432 1435 1437 1439 1440 1441 1441 1442 1441 1442 1441 1440 1439 1438 1437 1435 1433 1431 1429 1427 1426 1424 1422 1420 1418 1416 1414 1411 1409
1387 1390 1392 1394 1397 1401 1407 1411 1415 1419 1422 1426 1429 1432 1433 1435 1438 1438 1440 1442 1441 1442 1441 1442 1441 1440 1438 1437 1435 1433 1432 1430 1428 1426 1424 1422 1420 1418 1416 1414 1412 1409 1407 1405
1396 1399 1401 1404 1407 1410 1413 1419 1423 1426 1428 1431 1433 1436 1437 1438 1439 1440 1441 1442 1443 1442 1441 1440 1438 1437 1436 1434 1433 1431 1429 1427 1425 1422 1420 1417 1415 1414 1412 1409 1407 1405 1403 1400
1405 1408 1411 1413 1415 1420 1423 1426 1429 1432 1434 1435 1436 1437 1440 1440 1441 1441 1441 1441 1442 1442 1439 1438 1435 1434 1433 1433 1431 1429 1426 1424 1421 1418 1416 1414 1411 1409 1407 1405 1403 1400 1397 1395
1411 1413 1416 1419 1423 1426 1429 1432 1433 1436 1437 1438 1439 1440 1441 1442 1441 1441 1441 1441 1441 1440 1439 1438 1436 1434 1432 1430 1427 1425 1423 1420 1418 1416 1413 1410 1407 1405 1402 1400 1397 1395 1392 1388
1417 1420 1422 1424 1428 1430 1433 1434 1435 1437 1439 1440 1441 1442 1442 1443 1442 1442 1442 1442 1441 1439 1438 1436 1435 1432 1430 1428 1425 1423 1420 1417 1415 1412 1409 1406 1403 1401 1398 1395 1392 1389 1385 1382